Location: Peebles
(55.6412°N, 3.1714°W)
Time: 04:15:38
(UTC+00:00)

CSL-04 Debris - Visible Passes

Search period start: 25 January 2022 00:00
Search period end: 04 February 2022 00:00
Orbit: 825 x 848 km, 98.9° (Epoch: 24 January)

Date Brightness Start Highest point End Pass type
(mag) Time Alt. Az. Time Alt. Az. Time Alt. Az.
25 Jan 5.2 17:42:07 10° ESE 17:46:17 23° NE 17:50:28 10° N visible
25 Jan 4.1 19:21:04 12° SSE 19:26:08 88° WSW 19:31:34 10° NNW visible
25 Jan 6.5 21:03:37 10° SW 21:07:20 19° W 21:11:05 10° NW visible
26 Jan 5.4 17:26:56 10° E 17:30:40 19° NE 17:34:24 10° N visible
26 Jan 4.0 19:04:56 10° SSE 19:10:19 74° ENE 19:15:43 10° NNW visible
26 Jan 6.2 20:46:59 10° SW 20:51:17 24° W 20:55:37 10° NW visible
27 Jan 6.9 07:17:57 10° NE 07:21:28 17° E 07:24:58 10° SE visible
27 Jan 5.6 17:11:54 10° E 17:15:05 16° NE 17:18:16 10° N visible
27 Jan 4.1 18:49:15 10° SE 18:54:32 58° ENE 18:59:50 10° NNW visible
27 Jan 5.8 20:30:33 10° SSW 20:35:17 30° W 20:40:02 10° NNW visible
28 Jan 7.1 07:02:51 10° NE 07:05:22 13° E 07:07:54 10° ESE visible
28 Jan 4.4 18:33:39 10° SE 18:38:46 46° ENE 18:43:55 10° N visible
28 Jan 5.4 20:14:17 10° SSW 20:19:19 39° W 20:24:23 10° NNW visible
29 Jan 4.7 18:18:09 10° SE 18:23:03 37° ENE 18:27:59 10° N visible
29 Jan 4.9 19:58:09 10° S 20:03:23 50° W 20:08:38 10° NNW visible
30 Jan 4.9 18:02:43 10° ESE 18:07:22 30° NE 18:12:00 10° N visible
30 Jan 4.5 19:42:07 10° S 19:47:29 64° WSW 19:52:52 10° NNW visible
30 Jan 6.9 21:26:30 10° WSW 21:28:59 13° W 21:31:30 10° NW visible
31 Jan 5.2 17:47:25 10° ESE 17:51:42 25° NE 17:56:00 10° N visible
31 Jan 4.2 19:26:13 10° SSE 19:31:36 82° WSW 19:37:03 10° NNW visible
31 Jan 6.7 21:09:25 10° SW 21:12:54 17° W 21:16:23 10° NW visible
01 Feb 5.4 17:32:12 10° E 17:36:04 21° NE 17:39:57 10° N visible
01 Feb 4.0 19:10:24 10° SSE 19:15:47 80° ENE 19:21:12 10° NNW visible
01 Feb 6.3 20:52:42 10° SW 20:56:50 22° W 21:00:59 10° NW visible
02 Feb 4.1 18:54:40 10° SSE 18:59:59 63° ENE 19:05:20 10° NNW visible
02 Feb 6.0 20:36:13 10° SSW 20:40:49 28° W 20:45:27 10° NNW visible
03 Feb 7.1 07:08:01 10° NE 07:10:57 15° E 07:13:52 10° ESE visible
03 Feb 4.3 18:39:03 10° SE 18:44:13 50° ENE 18:49:25 10° N visible
03 Feb 5.6 20:19:54 10° SSW 20:24:50 36° W 20:29:48 10° NNW visible
